Showing default

JILIN-01 GAOFEN 3D 29, 52446

Orbit data source: Space-Track

JILIN-01 GAOFEN 3D 29, 52446 is a payload satellite owned by Changguang WJ (CN) in SSO that was launched on Thu, 05 May 2022 UTC via a CHANG ZHENG 2D launch vehicle from the Taiyaun Space Center, China (TSC). Payload-class satellites include a variety of spacecraft equipped with specific instruments for various scientific and technological missions. These include communications satellites like Starlink; space stations such as the ISS; scientific satellites like the Hubble; Earth observation satellites from companies like Planet Labs, Umbra, and HawkEye 360; GPS; miniature CubeSats for education and research; and military/defense satellites.

Loading next visibility...
Identifier
52446, 2022-048D
Orbit
SSO
Country
Flag of CNCN / PRC
Related business
Manufacturer
Changguang WJ
Mission
Operational Commercial Imaging
Bus & Motor
JL-1, Unknown motor
Mass
42 kg wet, 42 kg dry
Launch date (UTC)
2022-05-05 (4 years ago)
Launch vehicle
CHANG ZHENG 2D
Launch site
Taiyaun Space Center, China (TSC)
Object type
Payload
Rocket body
Debris
Shape & HBR
Box + 2 Pan, 0.8 m
Radar Cross Section
2.000 m², Medium (>0.1 m² and < 1m²)

Expand to show TLE details & history
Last TLE update: 10 hours ago

TLE from 10 hours ago
0 JILIN-01 GAOFEN 3D 29
1 52446U 22048D   25346.97080751  .00056580  00000-0  10544-2 0  9994
2 52446  97.5689  83.9703 0002996   1.9882 358.1379 15.48639123200461
Epoch: 2025-12-12T23:17Z
TLE epoch observation values (Epoch: 2025-12-12T23:17:57.768Z)
Latitude
-0.0001°
Longitude
12.57483°
Altitude
421.794 km
Speed
7.659 km/s
True Right ascension
05h 35m 52s
True Declination
0° 00' 00"
Sunlit
Object was in full shadow at epoch
Visualization orbit readout
Latitude
Unknown
Longitude
Unknown
Altitude
Unknown
Speed
Unknown
Apparent Right ascension
Unknown
Apparent Declination
Unknown
Sunlit
N/A
Visualization observer readout
Local Sidereal Time
07:30:37
Azimuth
Unknown
Elevation
Unknown
Doppler factor
Unknown
Orbital elements
Apogee altitude
419.677 km
Perigee altitude
415.605 km
Semi-major axis
6,795.778 km
Eccentricity
0.0003
Inclination
97.5689°
RAAN
83.9703°
Arg. of periapsis
1.9882°
True anomaly
358.13678°
Mean anomaly
358.1379°
Eccentric anomaly
358.13734°
Mean motion
3.87422 °/min
Orbital period
92.92 mins
BSTAR
0.0010544
Loading maneuver chart data...
Computing Atmospheric mass density...
Loading historical data...
Loading historical data...
Loading historical data...
Loading historical data...
Loading historical data...
Loading historical data...
Loading historical data...

Documentation

Showing up to 5 results
|